Location: Cudham
(51.3000°N, 0.0667°E)
Time: 06:34:31
(UTC+00:00)

Cosmos 2344 - Pass Details

Date: 19 May 2025
Orbit: 1200 x 3042 km, 63.3° (Epoch: 18 June)

Event Time Altitude Azimuth Distance (km) Brightness Sun altitude
Rises 21:24:53 0° 246° (WSW) 4,282 6.5 -11.4°
Reaches altitude 10° 21:27:49 10° 252° (WSW) 3,217 5.9 -11.7°
Maximum altitude 21:34:58 53° 329° (NNW) 1,449 4.3 -12.3°
Drops below altitude 10° 21:42:24 10° 46° (NE) 3,327 5.9 -12.9°
Sets 21:45:30 0° 51° (NE) 4,441 6.5 -13.2°
